sat.trackr.live / text

‹ back to catalog

STARLINK-35576

NORAD 66137 · 2025-237Z

PAYLOAD ACTIVE UNKNOWN

§ Identity

Operator
Country
US
Launch date
2025-10-22
Launch site
AFWTR
Launch vehicle
Mass (kg)
RCS (m²)

Purposes: comms

External: N2YO · Heavens-Above · Gunter

§ Orbital elements

Epoch: 2026-09-20T13:38:01.641120Z

Period
93.85 min
Inclination
53.1567°
Eccentricity
0.0001164
Mean motion
15.34408925 rev/d
Perigee alt
461.9 km
Apogee alt
463.5 km
Semi-major
6,840.8 km
B*
5.1710e-4
RAAN
211.1400°
Arg perigee
89.0328°
Mean anomaly
271.0808°
Rev number
5,249

§ Raw data

STARLINK-355761 66137U 25237Z   26263.56807455  .00017140  00000+0  51710-3 0  99902 66137  53.1567 211.1400 0001164  89.0328 271.0808 15.34408925 52490

JSON: /api/v1/satellites/66137 · /tle

For live sub-satellite position, see the globe view (requires WebGL).

§ Visibility from observer

Set your observer location to see the next 7 days of passes ≥ 10°. The values pass through the URL so the page stays shareable.

No JS? Fill the form by hand. The geolocation button needs JavaScript.